Hourly Data Report for July 07, 2017

QUALICUM BEACH AIRPORT
BRITISH COLUMBIA

49°20'14.000" N
124°23'38.000" W
58.20 m
1026562
71766
VOQ

Download Data

Hourly Data (July 2017)
Hourly Data Report for July 7, 2017
TIME
LST
Temp Definition
°C
Dew Point Definition
°C
Rel Hum Definition
%
Precip. Amount Definition
mm

Wind Dir Definition
10's deg

Wind Spd Definition
km/h
Visibility Definition
km
Stn Press Definition
kPa
Hmdx Definition


Wind Chill Definition


Weather Definition


00:00 16.8 13.2 79 0.0 24 3   100.93     LegendNANA
01:00 16.5 12.9 79 0.0 27 2   100.96     LegendNANA
02:00 15.5 12.8 84 0.0 26 4   100.98     LegendNANA
03:00 14.7 12.6 87 0.0 25 4   100.99     LegendNANA
04:00 13.4 11.9 91 0.0 21 1   101.02     LegendNANA
05:00 14.5 12.7 89 0.0 28 3   101.05     LegendNANA
06:00 17.7 13.5 77 0.0 31 5   101.11     LegendNANA
07:00 19.8 13.3 66 0.0 4 5   101.15     LegendNANA
08:00 19.9 12.1 61 0.0 4 5   101.22     LegendNANA
09:00 21.0 10.4 51 0.0 7 8   101.29     LegendNANA
10:00 18.9 13.8 72 0.0 10 11   101.34     LegendNANA
11:00 19.6 13.3 67 0.0 5 9   101.43     LegendNANA
12:00 20.5 12.6 61 0.0 5 9   101.44     LegendNANA
13:00 21.2 13.9 63 0.0 10 11   101.47 25   LegendNANA
14:00 21.8 12.1 54 0.0 9 11   101.49     LegendNANA
15:00 21.7 11.4 52 0.0 9 13   101.51     LegendNANA
16:00 22.2 10.8 49 0.0 9 12   101.48     LegendNANA
17:00 21.8 11.4 52 0.0 9 12   101.46     LegendNANA
18:00 22.2 11.3 50 0.0 10 7   101.45     LegendNANA
19:00 19.6 14.5 73 0.0 9 8   101.43     LegendNANA
20:00 18.9 14.3 75 0.0 26 1   101.40     LegendNANA
21:00 16.9 13.8 82 0.0 0 1   101.45     LegendNANA
22:00 15.9 13.0 83 0.0 24 1   101.44     LegendNANA
23:00 15.9 12.4 80 0.0 29 2   101.42     LegendNANA

Notes on Data Quality.

Legend

  • E = Estimated
  • M = Missing
  • NA = Not Available*
  • [empty] = Indicates an unobserved value
Date modified: